Weather History for EGJA - December, 2012

Change the Weather History Date:

Monday, December 24, 2012

  Actual Average Record
Temperature  
Mean Temperature 52 °F -  
Max Temperature 53 °F 46 °F 53 °F (2002)
Min Temperature 50 °F 42 °F 35 °F (2010)
Degree Days  
Heating Degree Days 14    
Growing Degree Days 2 (Base 50)    
Moisture  
Dew Point 50 °F    
Average Humidity 95    
Maximum Humidity 100    
Minimum Humidity 88    
Precipitation  
Precipitation 0.00 in - - ()
Sea Level Pressure  
Sea Level Pressure 29.50 in    
Wind  
Wind Speed 21 mph ()    
Max Wind Speed 32 mph    
Max Gust Speed 53 mph    
Visibility 5.9 miles    
Events Rain    
Averages and records for this station are not official NWS values.
T = Trace of Precipitation, MM = Missing Value Source: Averaged Metar Reports

Daily Weather History Graph

Daily Weather History Graph

Search for Another Location

Airport or City:

Trip Planner

Search our weather history database for the weather conditions in past years. The results will help you decide how hot, cold, wet, or windy it might be!

Date:

Astronomy

Dec. 24, 2012 Rise Set
Actual Time 8:04 AM GMT 4:12 PM GMT
Civil Twilight 7:26 AM GMT 4:50 PM GMT
Nautical Twilight 6:45 AM GMT 5:31 PM GMT
Astronomical Twilight 6:06 AM GMT 6:11 PM GMT
Moon 1:38 PM GMT (12/24) 4:20 AM GMT (12/24)
Length of Visible Light 9h 23m
Length of Day
8h 07m
Waxing Gibbous, 87% of the Moon is Illuminated
Dec 24
Waxing Gibbous
Dec 28
Full
Jan 5
Last Quarter
Jan 11
New
Jan 18
First Quarter

Hourly Weather History & Observations

Time (GMT) Temp. Dew Point Humidity Pressure Visibility Wind Dir Wind Speed Gust Speed Precip Events Conditions
6:50 AM 51.8 °F 50.0 °F 94% 29.56 in 6.2 mi South 25.3 mph - N/A   Scattered Clouds
7:20 AM 51.8 °F 50.0 °F 94% 29.56 in 6.2 mi South 24.2 mph - N/A   Mostly Cloudy
7:50 AM 51.8 °F 50.0 °F 94% 29.53 in 6.2 mi South 28.8 mph - N/A Rain Light Rain
8:20 AM 51.8 °F 50.0 °F 94% 29.53 in 6.2 mi South 26.5 mph - N/A   Scattered Clouds
8:50 AM 51.8 °F 50.0 °F 94% 29.53 in 6.2 mi South 25.3 mph - N/A   Partly Cloudy
9:20 AM 51.8 °F 50.0 °F 94% 29.50 in 6.2 mi South 21.9 mph 35.7 mph N/A   Mostly Cloudy
9:50 AM 51.8 °F 50.0 °F 94% 29.50 in 6.2 mi South 23.0 mph 34.5 mph N/A   Mostly Cloudy
10:20 AM 51.8 °F 50.0 °F 94% 29.47 in 6.2 mi South 23.0 mph 35.7 mph N/A   Mostly Cloudy
10:50 AM 51.8 °F 51.8 °F 100% 29.47 in 6.2 mi South 24.2 mph 41.4 mph N/A Rain Light Rain Showers
11:20 AM 53.6 °F 50.0 °F 88% 29.44 in 6.2 mi South 31.1 mph 47.2 mph N/A Rain Light Rain
11:50 AM 51.8 °F 51.8 °F 100% 29.44 in 6.2 mi SSW 27.6 mph 39.1 mph N/A   Mostly Cloudy
12:20 PM 53.6 °F 50.0 °F 88% 29.44 in 2.5 mi SW 32.2 mph 52.9 mph N/A Rain Light Rain
12:50 PM 51.8 °F 51.8 °F 100% 29.47 in 3.7 mi West 23.0 mph 35.7 mph N/A Rain Light Rain
1:20 PM 50.0 °F 50.0 °F 100% 29.47 in 6.2 mi WSW 18.4 mph - N/A   Mostly Cloudy
1:50 PM 50.0 °F 50.0 °F 100% 29.47 in 6.2 mi West 20.7 mph - N/A   Mostly Cloudy
2:20 PM 50.0 °F 48.2 °F 94% 29.50 in 6.2 mi West 21.9 mph - N/A   Mostly Cloudy
2:50 PM 50.0 °F 48.2 °F 94% 29.50 in 6.2 mi WSW 17.3 mph - N/A   Scattered Clouds
3:50 PM 50.0 °F 48.2 °F 94% 29.50 in 6.2 mi SW 18.4 mph - N/A   Scattered Clouds
4:20 PM 50.0 °F 48.2 °F 94% 29.53 in 6.2 mi ESE 17.3 mph - N/A   Scattered Clouds